EDW556 LPPS-LPMA

Flight info

Callsign EDW556
Flight time 0h 27m
Altitude 7000
Route PILIM
Aircraft A359/H-VGD/A

Departure

Time 2026-04-26 12:35
Airport Porto Santo Airport (LPPS)

Arrival

Time 2026-04-26 13:02
Airport Cristiano Ronaldo International Airport (LPMA)
Time Latitude Longitude Altitude Speed Heading
2026-04-26 12:27 33.07188 -16.34636 295 ft 0 kts 135°
2026-04-26 12:29 33.07187 -16.34635 295 ft 0 kts 135°
2026-04-26 12:29 33.07183 -16.34637 295 ft 0 kts 181°
2026-04-26 12:30 33.07181 -16.34642 295 ft 0 kts 231°
2026-04-26 12:30 33.07183 -16.34666 296 ft 9 kts 275°
2026-04-26 12:31 33.07043 -16.34716 290 ft 15 kts 179°
2026-04-26 12:31 33.06964 -16.34775 287 ft 14 kts 267°
2026-04-26 12:31 33.06963 -16.34889 287 ft 13 kts 265°
2026-04-26 12:31 33.06928 -16.34985 287 ft 12 kts 218°
2026-04-26 12:32 33.06861 -16.34973 284 ft 11 kts 174°
2026-04-26 12:32 33.06768 -16.34973 279 ft 16 kts 181°
2026-04-26 12:32 33.06493 -16.34963 268 ft 23 kts 178°
2026-04-26 12:33 33.06382 -16.34957 263 ft 14 kts 177°
2026-04-26 12:33 33.06273 -16.34953 258 ft 18 kts 177°
2026-04-26 12:33 33.06153 -16.34937 255 ft 15 kts 144°
2026-04-26 12:33 33.06073 -16.34850 253 ft 16 kts 142°
2026-04-26 12:34 33.06008 -16.34890 251 ft 12 kts 277°
2026-04-26 12:34 33.06051 -16.34943 252 ft 11 kts 354°
2026-04-26 12:34 33.06319 -16.34953 260 ft 89 kts 357°
2026-04-26 12:34 33.07236 -16.34994 551 ft 162 kts 359°
2026-04-26 12:35 33.08528 -16.35032 1317 ft 208 kts
2026-04-26 12:35 33.10071 -16.35068 1875 ft 238 kts
2026-04-26 12:35 33.11759 -16.35109 2446 ft 243 kts
2026-04-26 12:35 33.13444 -16.35154 3004 ft 246 kts
2026-04-26 12:36 33.15159 -16.35494 3575 ft 253 kts 339°
2026-04-26 12:36 33.16514 -16.36857 4128 ft 268 kts 304°
2026-04-26 12:36 33.17034 -16.39016 4634 ft 282 kts 270°
2026-04-26 12:36 33.16563 -16.41313 5089 ft 286 kts 248°
2026-04-26 12:37 33.15702 -16.43456 5537 ft 288 kts 241°
2026-04-26 12:37 33.14711 -16.45549 5984 ft 290 kts 239°
2026-04-26 12:37 33.13694 -16.47631 6447 ft 291 kts 239°
2026-04-26 12:37 33.12688 -16.49743 6884 ft 293 kts 240°
2026-04-26 12:38 33.11616 -16.51819 7127 ft 294 kts 228°
2026-04-26 12:38 33.09988 -16.53223 7167 ft 289 kts 198°
2026-04-26 12:38 33.08052 -16.53772 7172 ft 286 kts 188°
2026-04-26 12:38 33.06095 -16.54221 7176 ft 287 kts 188°
2026-04-26 12:39 33.04133 -16.54676 7176 ft 287 kts 188°
2026-04-26 12:39 33.02201 -16.55129 7174 ft 286 kts 188°
2026-04-26 12:39 33.00235 -16.55597 7171 ft 287 kts 188°
2026-04-26 12:39 32.98289 -16.56063 7177 ft 288 kts 188°
2026-04-26 12:40 32.96332 -16.56531 7173 ft 286 kts 188°
2026-04-26 12:40 32.94371 -16.57000 7108 ft 286 kts 188°
2026-04-26 12:40 32.92431 -16.57463 6737 ft 283 kts 188°
2026-04-26 12:40 32.90504 -16.57921 6210 ft 282 kts 188°
2026-04-26 12:41 32.88581 -16.58381 5755 ft 280 kts 188°
2026-04-26 12:41 32.86683 -16.58831 5333 ft 278 kts 189°
2026-04-26 12:41 32.84856 -16.59605 5148 ft 283 kts 210°
2026-04-26 12:41 32.83235 -16.60913 4968 ft 282 kts 213°
2026-04-26 12:42 32.81633 -16.62239 4491 ft 278 kts 214°
2026-04-26 12:42 32.80063 -16.63541 4014 ft 267 kts 214°
2026-04-26 12:42 32.78585 -16.64769 3500 ft 256 kts 215°
2026-04-26 12:42 32.77133 -16.65969 2945 ft 250 kts 216°
2026-04-26 12:43 32.75774 -16.67092 2805 ft 227 kts 216°
2026-04-26 12:43 32.74534 -16.68118 2692 ft 208 kts 215°
2026-04-26 12:43 32.73376 -16.69073 2440 ft 199 kts 215°
2026-04-26 12:43 32.72268 -16.69989 2314 ft 185 kts 216°
2026-04-26 12:44 32.71501 -16.70624 2250 ft 180 kts 217°
2026-04-26 12:44 32.70548 -16.71411 2167 ft 179 kts 216°
2026-04-26 12:44 32.69524 -16.72258 2148 ft 179 kts 217°
2026-04-26 12:44 32.68502 -16.73101 2149 ft 179 kts 216°
2026-04-26 12:45 32.67401 -16.73793 2193 ft 179 kts 211°
2026-04-26 12:45 32.66443 -16.74763 2317 ft 170 kts 236°
2026-04-26 12:45 32.65938 -16.75817 2333 ft 135 kts 253°
2026-04-26 12:45 32.65842 -16.76862 2085 ft 129 kts 279°
2026-04-26 12:46 32.65881 -16.77932 1767 ft 129 kts 277°
2026-04-26 12:46 32.66044 -16.78946 1472 ft 124 kts 298°
2026-04-26 12:46 32.66575 -16.79696 1191 ft 115 kts 328°
2026-04-26 12:46 32.67323 -16.79961 850 ft 118 kts
2026-04-26 12:47 32.68032 -16.79512 500 ft 119 kts 44°
2026-04-26 12:47 32.68576 -16.78828 352 ft 112 kts 37°
2026-04-26 12:47 32.69241 -16.78096 1015 ft 140 kts 37°
2026-04-26 12:47 32.70082 -16.77283 1862 ft 172 kts 36°
2026-04-26 12:48 32.71064 -16.76393 2580 ft 173 kts 35°
2026-04-26 12:48 32.72004 -16.75518 2550 ft 172 kts 36°
2026-04-26 12:48 32.72943 -16.74637 2474 ft 171 kts 37°
2026-04-26 12:48 32.73877 -16.73759 2401 ft 172 kts 39°
2026-04-26 12:49 32.74471 -16.72551 2298 ft 178 kts 77°
2026-04-26 12:49 32.74313 -16.71082 2248 ft 183 kts 101°
2026-04-26 12:49 32.73939 -16.69647 2182 ft 181 kts 104°
2026-04-26 12:49 32.73376 -16.68283 2142 ft 191 kts 128°
2026-04-26 12:50 32.72632 -16.67673 2145 ft 198 kts 155°
2026-04-26 12:50 32.71289 -16.67569 2163 ft 200 kts 191°
2026-04-26 12:50 32.69954 -16.68040 2153 ft 198 kts 203°
2026-04-26 12:50 32.68731 -16.68711 2152 ft 190 kts 206°
2026-04-26 12:51 32.67534 -16.69418 2149 ft 190 kts 209°
2026-04-26 12:51 32.66363 -16.70106 2142 ft 189 kts 207°
2026-04-26 12:51 32.65185 -16.70808 2145 ft 192 kts 208°
2026-04-26 12:51 32.63996 -16.71514 2148 ft 190 kts 207°
2026-04-26 12:52 32.62810 -16.72207 2149 ft 186 kts 207°
2026-04-26 12:52 32.61663 -16.72875 2145 ft 181 kts 208°
2026-04-26 12:52 32.60760 -16.73785 2128 ft 165 kts 248°
2026-04-26 12:52 32.60725 -16.75043 2066 ft 151 kts 296°
2026-04-26 12:53 32.61181 -16.76210 1990 ft 160 kts 303°
2026-04-26 12:53 32.61753 -16.77345 1882 ft 160 kts 308°
2026-04-26 12:53 32.62417 -16.78406 1932 ft 159 kts 315°
2026-04-26 12:53 32.63220 -16.79273 2093 ft 158 kts 327°
2026-04-26 12:54 32.64187 -16.79903 2123 ft 156 kts 339°
2026-04-26 12:54 32.65178 -16.80295 1823 ft 142 kts 350°
2026-04-26 12:54 32.66094 -16.80403 1516 ft 127 kts
2026-04-26 12:54 32.66993 -16.80286 1181 ft 132 kts 14°
2026-04-26 12:55 32.67787 -16.79749 648 ft 131 kts 44°
2026-04-26 12:55 32.68413 -16.79034 366 ft 122 kts 40°
2026-04-26 12:55 32.68991 -16.78377 176 ft 108 kts 41°
2026-04-26 12:55 32.69586 -16.77643 499 ft 141 kts 47°
2026-04-26 12:56 32.70300 -16.76755 1304 ft 156 kts 43°
2026-04-26 12:56 32.71152 -16.75788 1886 ft 173 kts 41°
2026-04-26 12:56 32.71867 -16.74668 2075 ft 175 kts 68°
2026-04-26 12:56 32.71826 -16.73221 2138 ft 182 kts 109°
2026-04-26 12:57 32.70980 -16.72121 2141 ft 184 kts 149°
2026-04-26 12:57 32.69842 -16.71938 2146 ft 171 kts 194°
2026-04-26 12:57 32.68785 -16.72679 2171 ft 170 kts 223°
2026-04-26 12:58 32.67137 -16.74466 2154 ft 157 kts 226°
2026-04-26 12:58 32.66395 -16.75307 2153 ft 157 kts 227°
2026-04-26 12:58 32.65569 -16.76218 2147 ft 158 kts 227°
2026-04-26 12:58 32.64768 -16.77118 2151 ft 156 kts 226°
2026-04-26 12:59 32.63980 -16.78001 2143 ft 157 kts 227°
2026-04-26 12:59 32.63215 -16.78854 2150 ft 140 kts 226°
2026-04-26 12:59 32.62716 -16.79800 2109 ft 131 kts 266°
2026-04-26 12:59 32.62883 -16.80774 1998 ft 121 kts 308°
2026-04-26 13:00 32.63496 -16.81422 1683 ft 115 kts 340°
2026-04-26 13:00 32.64257 -16.81416 1318 ft 111 kts 18°
2026-04-26 13:00 32.64969 -16.81067 1100 ft 109 kts 21°
2026-04-26 13:00 32.65671 -16.80757 871 ft 106 kts 19°
2026-04-26 13:01 32.66387 -16.80499 714 ft 109 kts 14°
2026-04-26 13:01 32.67122 -16.80262 665 ft 110 kts 19°
2026-04-26 13:01 32.67758 -16.79825 484 ft 104 kts 40°
2026-04-26 13:01 32.68272 -16.79175 385 ft 111 kts 39°
2026-04-26 13:02 32.68822 -16.78564 239 ft 108 kts 39°
2026-04-26 13:02 32.69328 -16.77988 169 ft 79 kts 46°
2026-04-26 13:02 32.69551 -16.77730 191 ft 31 kts 45°
2026-04-26 13:02 32.69695 -16.77562 199 ft 26 kts 45°
2026-04-26 13:03 32.69815 -16.77419 198 ft 23 kts 44°
2026-04-26 13:03 32.69927 -16.77288 206 ft 22 kts 45°
2026-04-26 13:03 32.69956 -16.77164 200 ft 4 kts 146°
2026-04-26 13:03 32.69906 -16.77162 194 ft 17 kts 178°
2026-04-26 13:04 32.69797 -16.77247 175 ft 15 kts 250°
2026-04-26 13:04 32.69724 -16.77321 167 ft 18 kts 226°
2026-04-26 13:04 32.69629 -16.77438 174 ft 3 kts 229°
2026-04-26 13:04 32.69631 -16.77434 174 ft 0 kts 229°
2026-04-26 13:05 32.69580 -16.77498 178 ft 12 kts 226°
2026-04-26 13:05 32.69533 -16.77556 177 ft 8 kts 226°
2026-04-26 13:05 32.69528 -16.77562 176 ft 0 kts 226°
2026-04-26 13:06 32.69510 -16.77562 176 ft 0 kts 154°
2026-04-26 13:06 32.69505 -16.77552 176 ft 3 kts 125°
2026-04-26 13:06 32.69486 -16.77529 175 ft 5 kts 136°
2026-04-26 13:06 32.69471 -16.77513 175 ft 2 kts 137°
2026-04-26 13:07 32.69468 -16.77509 175 ft 0 kts 137°